Time,TemperatureF,DewpointF,PressureIn,WindDirection,WindDirectionDegrees,WindSpeedMPH,WindSpeedGustMPH,Humidity,HourlyPrecipIn,Conditions,Clouds,dailyrainin,SoftwareType,DateUTC
2017-06-26 00:00:00,63.3,51.8,29.98,East,90,1.2,0.0,66,0.00,FEW,,0.00,WeatherDisplay:10.37,2017-06-26 04:00:00,
2017-06-26 00:05:00,63.1,51.6,29.97,SE,135,1.2,2.2,66,0.00,FEW,,0.00,WeatherDisplay:10.37,2017-06-26 04:05:00,
2017-06-26 00:10:00,63.3,51.3,29.97,West,270,2.3,0.0,65,0.00,FEW,,0.00,WeatherDisplay:10.37,2017-06-26 04:10:00,
2017-06-26 00:15:00,63.3,51.3,29.98,NW,315,1.2,0.0,65,0.00,FEW,,0.00,WeatherDisplay:10.37,2017-06-26 04:15:00,
2017-06-26 00:20:00,63.1,51.6,29.98,North,0,0.0,0.0,66,0.00,FEW,,0.00,WeatherDisplay:10.37,2017-06-26 04:20:00,
2017-06-26 00:25:00,63.0,51.4,29.98,East,90,1.2,0.0,66,0.00,FEW,,0.00,WeatherDisplay:10.37,2017-06-26 04:25:00,
2017-06-26 00:30:00,63.0,51.4,29.98,West,270,1.2,0.0,66,0.00,FEW,,0.00,WeatherDisplay:10.37,2017-06-26 04:30:00,
2017-06-26 00:35:00,63.0,51.4,29.97,SW,225,3.5,0.0,66,0.00,FEW,,0.00,WeatherDisplay:10.37,2017-06-26 04:35:00,
2017-06-26 00:40:00,63.0,51.4,29.98,SW,225,1.2,0.0,66,0.00,FEW,,0.00,WeatherDisplay:10.37,2017-06-26 04:40:00,
2017-06-26 00:45:00,62.8,51.2,29.98,West,270,0.0,0.0,66,0.00,FEW,,0.00,WeatherDisplay:10.37,2017-06-26 04:45:00,
2017-06-26 00:50:00,62.6,51.1,29.97,SW,225,1.2,0.0,66,0.00,FEW,,0.00,WeatherDisplay:10.37,2017-06-26 04:50:00,
2017-06-26 00:55:00,62.6,51.1,29.97,SW,225,0.0,0.0,66,0.00,FEW,,0.00,WeatherDisplay:10.37,2017-06-26 04:55:00,
2017-06-26 01:00:00,62.4,51.3,29.97,SW,225,0.0,0.0,67,0.00,FEW,,0.00,WeatherDisplay:10.37,2017-06-26 05:00:00,
2017-06-26 01:05:00,62.2,51.1,29.97,SW,225,1.2,0.0,67,0.00,FEW,,0.00,WeatherDisplay:10.37,2017-06-26 05:05:00,
2017-06-26 01:10:00,62.2,51.1,29.97,SW,225,2.3,0.0,67,0.00,FEW,,0.00,WeatherDisplay:10.37,2017-06-26 05:10:00,
2017-06-26 01:15:00,62.1,51.4,29.96,SW,225,0.0,0.0,68,0.00,FEW,,0.00,WeatherDisplay:10.37,2017-06-26 05:15:00,
2017-06-26 01:16:00,62.1,51.4,29.97,SW,225,0.0,0.0,68,0.00,FEW,,0.00,WeatherDisplay:10.37,2017-06-26 05:16:00,
2017-06-26 01:21:00,61.9,51.2,29.97,SW,225,0.0,0.0,68,0.00,FEW,,0.00,WeatherDisplay:10.37,2017-06-26 05:21:00,
2017-06-26 01:26:00,61.9,51.2,29.97,SW,225,0.0,0.0,68,0.00,FEW,,0.00,WeatherDisplay:10.37,2017-06-26 05:26:00,
2017-06-26 01:31:00,61.7,51.0,29.97,SW,225,1.2,0.0,68,0.00,FEW,,0.00,WeatherDisplay:10.37,2017-06-26 05:31:00,
2017-06-26 01:36:00,61.7,51.4,29.97,SW,225,0.0,0.0,69,0.00,FEW,,0.00,WeatherDisplay:10.37,2017-06-26 05:36:00,
2017-06-26 01:41:00,61.5,51.3,29.96,SW,225,0.0,0.0,69,0.00,FEW,,0.00,WeatherDisplay:10.37,2017-06-26 05:41:00,
2017-06-26 01:46:00,61.5,51.6,29.96,SW,225,0.0,0.7,70,0.00,FEW,,0.00,WeatherDisplay:10.37,2017-06-26 05:46:00,
2017-06-26 01:51:00,61.7,52.2,29.97,South,180,1.2,1.2,71,0.00,FEW,,0.00,WeatherDisplay:10.37,2017-06-26 05:51:00,
2017-06-26 01:56:00,61.7,52.2,29.96,South,180,0.0,0.0,71,0.00,FEW,,0.00,WeatherDisplay:10.37,2017-06-26 05:56:00,
2017-06-26 02:01:00,61.5,52.0,29.97,South,180,0.0,0.7,71,0.00,FEW,,0.00,WeatherDisplay:10.37,2017-06-26 06:01:00,
2017-06-26 02:06:00,61.5,52.4,29.96,South,180,0.0,0.0,72,0.00,FEW,,0.00,WeatherDisplay:10.37,2017-06-26 06:06:00,
2017-06-26 02:11:00,61.3,52.2,29.96,South,180,1.2,0.0,72,0.00,FEW,,0.00,WeatherDisplay:10.37,2017-06-26 06:11:00,
2017-06-26 02:16:00,61.3,52.2,29.96,SW,225,3.5,0.0,72,0.00,FEW,,0.00,WeatherDisplay:10.37,2017-06-26 06:16:00,
2017-06-26 02:21:00,61.3,52.2,29.96,SE,135,1.2,0.0,72,0.00,FEW,,0.00,WeatherDisplay:10.37,2017-06-26 06:21:00,
2017-06-26 02:26:00,61.2,52.1,29.96,SW,225,1.2,0.0,72,0.00,FEW,,0.00,WeatherDisplay:10.37,2017-06-26 06:26:00,
2017-06-26 02:31:00,61.2,52.1,29.96,SW,225,1.2,1.2,72,0.00,FEW,,0.00,WeatherDisplay:10.37,2017-06-26 06:31:00,
2017-06-26 02:36:00,61.2,52.1,29.95,West,270,1.2,0.0,72,0.00,FEW,,0.00,WeatherDisplay:10.37,2017-06-26 06:36:00,
2017-06-26 02:41:00,61.2,52.1,29.95,SW,225,0.0,0.0,72,0.00,FEW,,0.00,WeatherDisplay:10.37,2017-06-26 06:41:00,
2017-06-26 02:46:00,61.2,52.1,29.95,SW,225,1.2,0.0,72,0.00,FEW,,0.00,WeatherDisplay:10.37,2017-06-26 06:46:00,
2017-06-26 02:51:00,61.0,51.9,29.95,SW,225,1.2,1.2,72,0.00,FEW,,0.00,WeatherDisplay:10.37,2017-06-26 06:51:00,
2017-06-26 02:56:00,60.8,51.7,29.95,SW,225,1.2,0.0,72,0.00,FEW,,0.00,WeatherDisplay:10.37,2017-06-26 06:56:00,
2017-06-26 03:01:00,60.8,52.1,29.95,South,180,0.0,0.7,73,0.00,FEW,,0.00,WeatherDisplay:10.37,2017-06-26 07:01:00,
2017-06-26 03:06:00,60.8,52.1,29.95,SW,225,1.2,1.2,73,0.00,FEW,,0.00,WeatherDisplay:10.37,2017-06-26 07:06:00,
2017-06-26 03:11:00,60.8,52.1,29.95,SW,225,0.0,0.0,73,0.00,FEW,,0.00,WeatherDisplay:10.37,2017-06-26 07:11:00,
2017-06-26 03:16:00,60.8,52.1,29.95,SW,225,0.0,0.0,73,0.00,FEW,,0.00,WeatherDisplay:10.37,2017-06-26 07:16:00,
2017-06-26 03:21:00,60.8,52.1,29.95,SW,225,0.0,0.0,73,0.00,FEW,,0.00,WeatherDisplay:10.37,2017-06-26 07:21:00,
2017-06-26 03:26:00,60.8,52.1,29.95,SW,225,0.0,0.0,73,0.00,FEW,,0.00,WeatherDisplay:10.37,2017-06-26 07:26:00,
2017-06-26 03:31:00,60.8,52.1,29.95,SW,225,0.0,0.0,73,0.00,FEW,,0.00,WeatherDisplay:10.37,2017-06-26 07:31:00,
2017-06-26 03:36:00,60.6,51.9,29.95,NW,315,0.0,0.0,73,0.00,FEW,,0.00,WeatherDisplay:10.37,2017-06-26 07:36:00,
2017-06-26 03:41:00,60.6,51.9,29.95,SW,225,1.2,0.0,73,0.00,FEW,,0.00,WeatherDisplay:10.37,2017-06-26 07:41:00,
2017-06-26 03:46:00,60.6,52.3,29.95,SW,225,0.0,0.0,74,0.00,FEW,,0.00,WeatherDisplay:10.37,2017-06-26 07:46:00,
2017-06-26 03:51:00,60.4,52.1,29.95,SW,225,0.0,0.0,74,0.00,FEW,,0.00,WeatherDisplay:10.37,2017-06-26 07:51:00,
2017-06-26 03:56:00,60.4,52.1,29.95,SW,225,0.0,0.0,74,0.00,FEW,,0.00,WeatherDisplay:10.37,2017-06-26 07:56:00,
2017-06-26 04:01:00,60.3,51.9,29.95,SW,225,0.0,0.0,74,0.00,FEW,,0.00,WeatherDisplay:10.37,2017-06-26 08:01:00,
2017-06-26 04:06:00,60.1,51.8,29.95,SW,225,0.0,0.0,74,0.00,FEW,,0.00,WeatherDisplay:10.37,2017-06-26 08:06:00,
2017-06-26 04:11:00,59.9,51.6,29.95,SW,225,0.0,0.0,74,0.00,FEW,,0.00,WeatherDisplay:10.37,2017-06-26 08:11:00,
2017-06-26 04:16:00,59.7,51.4,29.95,SW,225,0.0,0.0,74,0.00,FEW,,0.00,WeatherDisplay:10.37,2017-06-26 08:16:00,
2017-06-26 04:21:00,59.4,51.1,29.95,SW,225,0.0,0.0,74,0.00,FEW,,0.00,WeatherDisplay:10.37,2017-06-26 08:21:00,
2017-06-26 04:26:00,59.4,51.1,29.95,SW,225,0.0,0.0,74,0.00,FEW,,0.00,WeatherDisplay:10.37,2017-06-26 08:26:00,
2017-06-26 04:31:00,59.2,50.9,29.95,SW,225,0.0,0.0,74,0.00,FEW,,0.00,WeatherDisplay:10.37,2017-06-26 08:31:00,
2017-06-26 04:36:00,59.0,50.7,29.95,SW,225,0.0,0.0,74,0.00,FEW,,0.00,WeatherDisplay:10.37,2017-06-26 08:36:00,
2017-06-26 04:41:00,58.8,50.9,29.95,SW,225,0.0,0.0,75,0.00,FEW,,0.00,WeatherDisplay:10.37,2017-06-26 08:41:00,
2017-06-26 04:46:00,58.6,51.1,29.96,South,180,0.0,0.0,76,0.00,FEW,,0.00,WeatherDisplay:10.37,2017-06-26 08:46:00,
2017-06-26 04:51:00,58.5,50.9,29.96,South,180,0.0,0.0,76,0.00,FEW,,0.00,WeatherDisplay:10.37,2017-06-26 08:51:00,
2017-06-26 04:56:00,58.5,50.9,29.96,SE,135,0.0,0.0,76,0.00,FEW,,0.00,WeatherDisplay:10.37,2017-06-26 08:56:00,
2017-06-26 05:01:00,58.5,50.9,29.95,SW,225,1.2,0.0,76,0.00,FEW,,0.00,WeatherDisplay:10.37,2017-06-26 09:01:00,
2017-06-26 05:06:00,58.3,51.1,29.95,SW,225,1.2,0.0,77,0.00,FEW,,0.00,WeatherDisplay:10.37,2017-06-26 09:06:00,
2017-06-26 05:11:00,58.5,51.3,29.96,South,180,0.0,0.0,77,0.00,FEW,,0.00,WeatherDisplay:10.37,2017-06-26 09:11:00,
2017-06-26 05:16:00,58.5,51.3,29.96,East,90,0.0,0.0,77,0.00,FEW,,0.00,WeatherDisplay:10.37,2017-06-26 09:16:00,
2017-06-26 05:21:00,58.5,51.3,29.96,SW,225,0.0,0.0,77,0.00,FEW,,0.00,WeatherDisplay:10.37,2017-06-26 09:21:00,
2017-06-26 05:26:00,58.3,51.1,29.96,SW,225,1.2,0.0,77,0.00,FEW,,0.00,WeatherDisplay:10.37,2017-06-26 09:26:00,
2017-06-26 05:31:00,58.5,51.3,29.95,SW,225,3.5,0.0,77,0.00,FEW,,0.00,WeatherDisplay:10.37,2017-06-26 09:31:00,
2017-06-26 05:36:00,58.5,51.3,29.96,West,270,1.2,0.0,77,0.00,FEW,,0.00,WeatherDisplay:10.37,2017-06-26 09:36:00,
2017-06-26 05:41:00,58.3,51.1,29.96,East,90,0.0,0.0,77,0.00,FEW,,0.00,WeatherDisplay:10.37,2017-06-26 09:41:00,
2017-06-26 05:46:00,58.5,51.3,29.96,SW,225,1.2,0.0,77,0.00,FEW,,0.00,WeatherDisplay:10.37,2017-06-26 09:46:00,
2017-06-26 05:51:00,58.5,51.3,29.96,SW,225,1.2,0.0,77,0.00,FEW,,0.00,WeatherDisplay:10.37,2017-06-26 09:51:00,
2017-06-26 05:56:00,58.5,51.3,29.96,SW,225,1.2,0.0,77,0.00,FEW,,0.00,WeatherDisplay:10.37,2017-06-26 09:56:00,
2017-06-26 06:01:00,58.3,51.1,29.96,South,180,2.3,0.0,77,0.00,FEW,,0.00,WeatherDisplay:10.37,2017-06-26 10:01:00,
2017-06-26 06:06:00,58.3,51.1,29.96,West,270,3.5,3.5,77,0.00,FEW,,0.00,WeatherDisplay:10.37,2017-06-26 10:06:00,
2017-06-26 06:11:00,58.5,51.3,29.96,SW,225,1.2,0.0,77,0.00,FEW,,0.00,WeatherDisplay:10.37,2017-06-26 10:11:00,
2017-06-26 06:16:00,58.3,51.1,29.96,South,180,1.2,0.0,77,0.00,FEW,,0.00,WeatherDisplay:10.37,2017-06-26 10:16:00,
2017-06-26 06:21:00,58.3,51.1,29.96,SW,225,1.2,1.6,77,0.00,FEW,,0.00,WeatherDisplay:10.37,2017-06-26 10:21:00,
2017-06-26 06:26:00,58.5,51.3,29.96,SW,225,2.3,0.0,77,0.00,FEW,,0.00,WeatherDisplay:10.37,2017-06-26 10:26:00,
2017-06-26 06:31:00,58.6,51.4,29.97,South,180,1.2,0.0,77,0.00,FEW,,0.00,WeatherDisplay:10.37,2017-06-26 10:31:00,
2017-06-26 06:36:00,58.8,51.6,29.97,East,90,0.0,0.7,77,0.00,FEW,,0.00,WeatherDisplay:10.37,2017-06-26 10:36:00,
2017-06-26 06:41:00,59.0,51.4,29.97,South,180,1.2,0.0,76,0.00,FEW,,0.00,WeatherDisplay:10.37,2017-06-26 10:41:00,
2017-06-26 06:46:00,59.4,51.8,29.97,North,0,0.0,0.0,76,0.00,FEW,,0.00,WeatherDisplay:10.37,2017-06-26 10:46:00,
2017-06-26 06:51:00,59.9,52.3,29.97,SW,225,0.0,0.0,76,0.00,FEW,,0.00,WeatherDisplay:10.37,2017-06-26 10:51:00,
2017-06-26 06:56:00,60.4,52.8,29.97,SE,135,3.5,0.0,76,0.00,FEW,,0.00,WeatherDisplay:10.37,2017-06-26 10:56:00,
2017-06-26 07:02:00,60.8,52.8,29.97,SE,135,3.5,0.0,75,0.00,FEW,,0.00,WeatherDisplay:10.37,2017-06-26 11:02:00,
2017-06-26 07:07:00,61.0,52.6,29.97,North,0,1.2,0.0,74,0.00,FEW,,0.00,WeatherDisplay:10.37,2017-06-26 11:07:00,
2017-06-26 07:12:00,61.0,52.6,29.97,SW,225,1.2,0.0,74,0.00,FEW,,0.00,WeatherDisplay:10.37,2017-06-26 11:12:00,
2017-06-26 07:17:00,61.2,52.8,29.97,SW,225,3.5,0.0,74,0.00,FEW,,0.00,WeatherDisplay:10.37,2017-06-26 11:17:00,
2017-06-26 07:22:00,61.5,52.8,29.97,West,270,3.5,3.5,73,0.00,FEW,,0.00,WeatherDisplay:10.37,2017-06-26 11:22:00,
2017-06-26 07:27:00,61.7,53.0,29.97,SW,225,1.2,1.6,73,0.00,FEW,,0.00,WeatherDisplay:10.37,2017-06-26 11:27:00,
2017-06-26 07:32:00,61.7,53.0,29.97,SW,225,2.3,0.0,73,0.00,FEW,,0.00,WeatherDisplay:10.37,2017-06-26 11:32:00,
2017-06-26 07:37:00,61.9,53.1,29.97,West,270,3.5,3.5,73,0.00,FEW,,0.00,WeatherDisplay:10.37,2017-06-26 11:37:00,
2017-06-26 07:42:00,62.1,53.3,29.97,NW,315,0.0,0.7,73,0.00,FEW,,0.00,WeatherDisplay:10.37,2017-06-26 11:42:00,
2017-06-26 07:47:00,62.2,53.5,29.97,SW,225,1.2,1.2,73,0.00,FEW,,0.00,WeatherDisplay:10.37,2017-06-26 11:47:00,
2017-06-26 07:52:00,62.4,53.6,29.97,South,180,1.2,1.2,73,0.00,FEW,,0.00,WeatherDisplay:10.37,2017-06-26 11:52:00,
2017-06-26 07:57:00,62.6,53.4,29.97,NNW,338,3.5,3.5,72,0.00,FEW,,0.00,WeatherDisplay:10.37,2017-06-26 11:57:00,
2017-06-26 08:02:00,62.6,53.4,29.97,SE,135,0.0,0.7,72,0.00,FEW,,0.00,WeatherDisplay:10.37,2017-06-26 12:02:00,
2017-06-26 08:07:00,62.8,53.6,29.97,East,90,1.2,1.6,72,0.00,FEW,,0.00,WeatherDisplay:10.37,2017-06-26 12:07:00,
2017-06-26 08:12:00,62.8,53.6,29.98,West,270,1.2,1.2,72,0.00,FEW,,0.00,WeatherDisplay:10.37,2017-06-26 12:12:00,
2017-06-26 08:17:00,62.8,53.6,29.97,North,0,3.5,0.0,72,0.00,FEW,,0.00,WeatherDisplay:10.37,2017-06-26 12:17:00,
2017-06-26 08:22:00,63.3,54.1,29.97,SW,225,0.0,0.7,72,0.00,FEW,,0.00,WeatherDisplay:10.37,2017-06-26 12:22:00,
2017-06-26 08:27:00,63.7,54.5,29.97,SE,135,2.3,2.3,72,0.00,FEW,,0.00,WeatherDisplay:10.37,2017-06-26 12:27:00,
2017-06-26 08:32:00,63.7,54.5,29.97,North,0,1.2,0.0,72,0.00,FEW,,0.00,WeatherDisplay:10.37,2017-06-26 12:32:00,
2017-06-26 08:37:00,63.9,54.3,29.98,West,270,3.5,0.0,71,0.00,FEW,,0.00,WeatherDisplay:10.37,2017-06-26 12:37:00,
2017-06-26 08:42:00,64.2,54.6,29.98,NW,315,4.6,0.0,71,0.00,FEW,,0.00,WeatherDisplay:10.37,2017-06-26 12:42:00,
2017-06-26 08:47:00,64.4,54.8,29.97,North,0,1.2,0.0,71,0.00,FEW,,0.00,WeatherDisplay:10.37,2017-06-26 12:47:00,
2017-06-26 08:52:00,64.6,55.0,29.98,North,0,0.0,0.0,71,0.00,FEW,,0.00,WeatherDisplay:10.37,2017-06-26 12:52:00,
2017-06-26 08:57:00,64.9,54.9,29.98,NNW,338,2.3,0.0,70,0.00,FEW,,0.00,WeatherDisplay:10.37,2017-06-26 12:57:00,
2017-06-26 09:02:00,64.9,54.5,29.98,SW,225,4.6,4.6,69,0.00,FEW,,0.00,WeatherDisplay:10.37,2017-06-26 13:02:00,
2017-06-26 09:07:00,65.3,54.5,29.98,NW,315,8.1,8.1,68,0.00,FEW,,0.00,WeatherDisplay:10.37,2017-06-26 13:07:00,
2017-06-26 09:12:00,65.7,54.8,29.98,West,270,1.2,0.0,68,0.00,FEW,,0.00,WeatherDisplay:10.37,2017-06-26 13:12:00,
2017-06-26 09:17:00,65.5,54.6,29.98,North,0,1.2,1.2,68,0.00,FEW,,0.00,WeatherDisplay:10.37,2017-06-26 13:17:00,
2017-06-26 09:22:00,65.5,54.6,29.98,North,0,2.3,0.0,68,0.00,FEW,,0.00,WeatherDisplay:10.37,2017-06-26 13:22:00,
2017-06-26 09:27:00,65.8,55.0,29.98,North,0,1.2,1.2,68,0.00,FEW,,0.00,WeatherDisplay:10.37,2017-06-26 13:27:00,
2017-06-26 09:32:00,66.2,54.5,29.98,South,180,3.5,3.5,66,0.00,FEW,,0.00,WeatherDisplay:10.37,2017-06-26 13:32:00,
2017-06-26 09:37:00,66.4,54.7,29.98,South,180,1.2,0.0,66,0.00,FEW,,0.00,WeatherDisplay:10.37,2017-06-26 13:37:00,
2017-06-26 09:42:00,66.9,55.2,29.98,SW,225,3.5,0.0,66,0.00,FEW,,0.00,WeatherDisplay:10.37,2017-06-26 13:42:00,
2017-06-26 09:43:00,66.9,55.2,29.97,North,0,1.2,1.6,66,0.00,FEW,,0.00,WeatherDisplay:10.37,2017-06-26 13:43:00,
2017-06-26 09:48:00,67.3,55.1,29.97,NW,315,4.6,0.0,65,0.00,FEW,,0.00,WeatherDisplay:10.37,2017-06-26 13:48:00,
2017-06-26 09:53:00,67.8,55.6,29.98,NW,315,3.5,3.5,65,0.00,FEW,,0.00,WeatherDisplay:10.37,2017-06-26 13:53:00,
2017-06-26 09:58:00,68.2,55.1,29.97,NW,315,3.5,3.5,63,0.00,FEW,,0.00,WeatherDisplay:10.37,2017-06-26 13:58:00,
2017-06-26 10:03:00,68.5,55.4,29.97,North,0,3.5,0.0,63,0.00,FEW,,0.00,WeatherDisplay:10.37,2017-06-26 14:03:00,
2017-06-26 10:08:00,68.9,55.3,29.96,North,0,4.6,4.6,62,0.00,FEW,,0.00,WeatherDisplay:10.37,2017-06-26 14:08:00,
2017-06-26 10:13:00,68.5,54.6,29.97,NW,315,4.6,4.6,61,0.00,FEW,,0.00,WeatherDisplay:10.37,2017-06-26 14:13:00,
2017-06-26 10:18:00,68.4,54.8,29.96,SE,135,1.2,0.0,62,0.00,FEW,,0.00,WeatherDisplay:10.37,2017-06-26 14:18:00,
2017-06-26 10:23:00,68.4,54.4,29.96,North,0,3.5,0.0,61,0.00,FEW,,0.00,WeatherDisplay:10.37,2017-06-26 14:23:00,
2017-06-26 10:28:00,69.1,56.0,29.96,NW,315,3.5,3.5,63,0.00,FEW,,0.00,WeatherDisplay:10.37,2017-06-26 14:28:00,
2017-06-26 10:33:00,69.4,54.9,29.96,South,180,3.5,3.5,60,0.00,FEW,,0.00,WeatherDisplay:10.37,2017-06-26 14:33:00,
2017-06-26 10:38:00,68.9,54.0,29.96,SW,225,3.5,3.5,59,0.00,FEW,,0.00,WeatherDisplay:10.37,2017-06-26 14:38:00,
2017-06-26 10:43:00,68.2,53.3,29.96,SW,225,3.5,3.5,59,0.00,FEW,,0.00,WeatherDisplay:10.37,2017-06-26 14:43:00,
2017-06-26 10:48:00,68.7,54.3,29.96,South,180,2.3,2.3,60,0.00,FEW,,0.00,WeatherDisplay:10.37,2017-06-26 14:48:00,
2017-06-26 10:53:00,68.4,54.8,29.96,SW,225,8.1,8.1,62,0.00,FEW,,0.00,WeatherDisplay:10.37,2017-06-26 14:53:00,
2017-06-26 10:58:00,68.2,55.5,29.96,SW,225,10.4,10.4,64,0.00,FEW,,0.00,WeatherDisplay:10.37,2017-06-26 14:58:00,
2017-06-26 11:03:00,69.3,56.1,29.96,SW,225,3.5,3.5,63,0.00,FEW,,0.00,WeatherDisplay:10.37,2017-06-26 15:03:00,
2017-06-26 11:08:00,69.1,56.0,29.96,SW,225,6.9,0.0,63,0.00,FEW,,0.00,WeatherDisplay:10.37,2017-06-26 15:08:00,
2017-06-26 11:13:00,68.5,55.0,29.96,SW,225,6.9,6.9,62,0.00,FEW,,0.00,WeatherDisplay:10.37,2017-06-26 15:13:00,
2017-06-26 11:18:00,68.5,54.6,29.96,SW,225,10.4,10.4,61,0.00,FEW,,0.00,WeatherDisplay:10.37,2017-06-26 15:18:00,
2017-06-26 11:23:00,70.3,54.9,29.96,SW,225,12.7,12.7,58,0.00,FEW,,0.00,WeatherDisplay:10.37,2017-06-26 15:23:00,
2017-06-26 11:28:00,70.2,54.2,29.96,SW,225,8.1,8.1,57,0.00,FEW,,0.00,WeatherDisplay:10.37,2017-06-26 15:28:00,
2017-06-26 11:33:00,70.3,54.4,29.96,SW,225,5.8,5.8,57,0.00,FEW,,0.00,WeatherDisplay:10.37,2017-06-26 15:33:00,
2017-06-26 11:38:00,71.1,54.6,29.96,SW,225,9.2,9.2,56,0.00,FEW,,0.00,WeatherDisplay:10.37,2017-06-26 15:38:00,
2017-06-26 11:43:00,71.6,54.1,29.96,West,270,9.2,9.2,54,0.00,FEW,,0.00,WeatherDisplay:10.37,2017-06-26 15:43:00,
2017-06-26 11:48:00,70.7,52.7,29.96,SW,225,12.7,12.7,53,0.00,FEW,,0.00,WeatherDisplay:10.37,2017-06-26 15:48:00,
2017-06-26 11:53:00,70.5,53.1,29.96,North,0,4.6,4.6,54,0.00,FEW,,0.00,WeatherDisplay:10.37,2017-06-26 15:53:00,
2017-06-26 11:58:00,72.0,53.9,29.96,SW,225,8.1,8.1,53,0.00,FEW,,0.00,WeatherDisplay:10.37,2017-06-26 15:58:00,
2017-06-26 12:03:00,72.7,54.0,29.95,SW,225,9.2,9.2,52,0.00,FEW,,0.00,WeatherDisplay:10.37,2017-06-26 16:03:00,
2017-06-26 12:08:00,73.6,54.3,29.96,SW,225,8.1,8.1,51,0.00,FEW,,0.00,WeatherDisplay:10.37,2017-06-26 16:08:00,
2017-06-26 12:13:00,72.3,53.2,29.95,West,270,12.7,12.7,51,0.00,FEW,,0.00,WeatherDisplay:10.37,2017-06-26 16:13:00,
2017-06-26 12:18:00,72.7,54.0,29.95,SW,225,15.0,15.0,52,0.00,FEW,,0.00,WeatherDisplay:10.37,2017-06-26 16:18:00,
2017-06-26 12:19:00,72.7,54.0,29.95,SW,225,15.0,15.0,52,0.00,FEW,,0.00,WeatherDisplay:10.37,2017-06-26 16:19:00,
2017-06-26 12:24:00,73.2,54.0,29.95,SW,225,20.7,20.7,51,0.00,FEW,,0.00,WeatherDisplay:10.37,2017-06-26 16:24:00,
2017-06-26 12:29:00,73.0,53.8,29.95,West,270,3.5,3.5,51,0.00,FEW,,0.00,WeatherDisplay:10.37,2017-06-26 16:29:00,
2017-06-26 12:34:00,73.8,54.0,29.95,SW,225,8.1,8.1,50,0.00,FEW,,0.00,WeatherDisplay:10.37,2017-06-26 16:34:00,
2017-06-26 12:39:00,73.8,53.4,29.94,SW,225,8.1,8.1,49,0.00,FEW,,0.00,WeatherDisplay:10.37,2017-06-26 16:39:00,
2017-06-26 12:44:00,73.9,54.7,29.95,SW,225,6.9,6.9,51,0.00,FEW,,0.00,WeatherDisplay:10.37,2017-06-26 16:44:00,
2017-06-26 12:49:00,72.9,54.2,29.94,SW,225,10.4,10.4,52,0.00,FEW,,0.00,WeatherDisplay:10.37,2017-06-26 16:49:00,
2017-06-26 12:54:00,73.8,54.5,29.94,West,270,11.5,11.5,51,0.00,FEW,,0.00,WeatherDisplay:10.37,2017-06-26 16:54:00,
2017-06-26 12:59:00,73.0,53.8,29.94,SW,225,12.7,12.7,51,0.00,FEW,,0.00,WeatherDisplay:10.37,2017-06-26 16:59:00,
2017-06-26 13:04:00,73.8,54.0,29.94,West,270,10.4,10.4,50,0.00,FEW,,0.00,WeatherDisplay:10.37,2017-06-26 17:04:00,
2017-06-26 13:09:00,73.2,54.0,29.94,SW,225,11.5,11.5,51,0.00,FEW,,0.00,WeatherDisplay:10.37,2017-06-26 17:09:00,
2017-06-26 13:14:00,72.7,53.5,29.94,SW,225,12.7,12.7,51,0.00,FEW,,0.00,WeatherDisplay:10.37,2017-06-26 17:14:00,
2017-06-26 13:19:00,72.7,53.5,29.94,West,270,9.2,9.2,51,0.00,FEW,,0.00,WeatherDisplay:10.37,2017-06-26 17:19:00,
2017-06-26 13:24:00,73.0,54.4,29.94,SW,225,13.8,13.8,52,0.00,FEW,,0.00,WeatherDisplay:10.37,2017-06-26 17:24:00,
2017-06-26 13:29:00,71.8,54.2,29.94,SW,225,15.0,15.0,54,0.00,FEW,,0.00,WeatherDisplay:10.37,2017-06-26 17:29:00,
2017-06-26 13:34:00,71.8,54.2,29.94,South,180,11.5,11.5,54,0.00,FEW,,0.00,WeatherDisplay:10.37,2017-06-26 17:34:00,
2017-06-26 13:39:00,72.7,54.6,29.94,SW,225,15.0,15.0,53,0.00,FEW,,0.00,WeatherDisplay:10.37,2017-06-26 17:39:00,
2017-06-26 13:44:00,72.0,54.4,29.94,North,0,5.8,5.8,54,0.00,FEW,,0.00,WeatherDisplay:10.37,2017-06-26 17:44:00,
2017-06-26 13:49:00,72.5,53.9,29.93,SW,225,12.7,12.7,52,0.00,FEW,,0.00,WeatherDisplay:10.37,2017-06-26 17:49:00,
2017-06-26 13:54:00,73.0,54.4,29.94,WNW,292,11.5,11.5,52,0.00,FEW,,0.00,WeatherDisplay:10.37,2017-06-26 17:54:00,
2017-06-26 13:59:00,73.0,53.8,29.93,SW,225,9.2,9.2,51,0.00,FEW,,0.00,WeatherDisplay:10.37,2017-06-26 17:59:00,
2017-06-26 14:04:00,73.4,54.2,29.93,SW,225,8.1,8.1,51,0.00,FEW,,0.00,WeatherDisplay:10.37,2017-06-26 18:04:00,
2017-06-26 14:09:00,73.8,54.5,29.93,SW,225,9.2,9.2,51,0.00,FEW,,0.00,WeatherDisplay:10.37,2017-06-26 18:09:00,
2017-06-26 14:14:00,74.5,55.2,29.93,SW,225,6.9,6.9,51,0.00,FEW,,0.00,WeatherDisplay:10.37,2017-06-26 18:14:00,
2017-06-26 14:19:00,75.0,55.1,29.93,SW,225,9.2,9.2,50,0.00,FEW,,0.00,WeatherDisplay:10.37,2017-06-26 18:19:00,
2017-06-26 14:24:00,74.7,54.8,29.93,South,180,8.1,8.1,50,0.00,FEW,,0.00,WeatherDisplay:10.37,2017-06-26 18:24:00,
2017-06-26 14:29:00,73.8,54.0,29.93,NW,315,11.5,11.5,50,0.00,FEW,,0.00,WeatherDisplay:10.37,2017-06-26 18:29:00,
2017-06-26 14:34:00,74.3,54.5,29.93,SW,225,8.1,8.1,50,0.00,FEW,,0.00,WeatherDisplay:10.37,2017-06-26 18:34:00,
2017-06-26 14:39:00,73.0,54.4,29.92,SW,225,9.2,9.2,52,0.00,FEW,,0.00,WeatherDisplay:10.37,2017-06-26 18:39:00,
2017-06-26 14:44:00,73.0,54.4,29.92,SW,225,11.5,11.5,52,0.00,FEW,,0.00,WeatherDisplay:10.37,2017-06-26 18:44:00,
2017-06-26 14:49:00,72.7,54.0,29.92,South,180,10.4,10.4,52,0.00,FEW,,0.00,WeatherDisplay:10.37,2017-06-26 18:49:00,
2017-06-26 14:54:00,72.5,53.3,29.92,West,270,19.6,19.6,51,0.00,FEW,,0.00,WeatherDisplay:10.37,2017-06-26 18:54:00,
2017-06-26 14:59:00,73.2,55.1,29.91,SW,225,8.1,9.2,53,0.00,FEW,,0.00,WeatherDisplay:10.37,2017-06-26 18:59:00,
2017-06-26 15:04:00,72.5,53.9,29.92,SW,225,9.2,9.2,52,0.00,FEW,,0.00,WeatherDisplay:10.37,2017-06-26 19:04:00,
2017-06-26 15:09:00,72.3,53.7,29.91,West,270,15.0,15.0,52,0.00,FEW,,0.00,WeatherDisplay:10.37,2017-06-26 19:09:00,
2017-06-26 15:14:00,72.0,53.4,29.92,West,270,15.0,15.0,52,0.00,FEW,,0.00,WeatherDisplay:10.37,2017-06-26 19:14:00,
2017-06-26 15:19:00,72.1,54.1,29.92,West,270,11.5,11.5,53,0.00,FEW,,0.00,WeatherDisplay:10.37,2017-06-26 19:19:00,
2017-06-26 15:24:00,72.1,54.1,29.92,SW,225,15.0,15.0,53,0.00,FEW,,0.00,WeatherDisplay:10.37,2017-06-26 19:24:00,
2017-06-26 15:29:00,72.1,54.6,29.93,South,180,8.1,8.3,54,0.00,FEW,,0.00,WeatherDisplay:10.37,2017-06-26 19:29:00,
2017-06-26 15:34:00,71.8,54.2,29.94,East,90,13.8,13.8,54,0.00,FEW,,0.00,WeatherDisplay:10.37,2017-06-26 19:34:00,
2017-06-26 15:39:00,71.6,53.6,29.94,West,270,10.4,10.4,53,0.00,FEW,,0.00,WeatherDisplay:10.37,2017-06-26 19:39:00,
2017-06-26 15:44:00,71.8,54.7,29.94,SW,225,5.8,5.8,55,0.00,FEW,,0.00,WeatherDisplay:10.37,2017-06-26 19:44:00,
2017-06-26 15:49:00,72.0,54.4,29.93,North,0,12.7,12.7,54,0.00,FEW,,0.00,WeatherDisplay:10.37,2017-06-26 19:49:00,
2017-06-26 15:54:00,72.5,54.9,29.94,SW,225,3.5,3.5,54,0.00,FEW,,0.00,WeatherDisplay:10.37,2017-06-26 19:54:00,
2017-06-26 15:55:00,72.5,54.9,29.94,SW,225,8.1,8.1,54,0.00,FEW,,0.00,WeatherDisplay:10.37,2017-06-26 19:55:00,
2017-06-26 16:00:00,72.5,53.9,29.94,West,270,11.5,11.5,52,0.00,FEW,,0.00,WeatherDisplay:10.37,2017-06-26 20:00:00,
2017-06-26 16:05:00,72.0,52.8,29.94,SW,225,12.7,12.7,51,0.00,FEW,,0.00,WeatherDisplay:10.37,2017-06-26 20:05:00,
2017-06-26 16:10:00,71.4,52.9,29.94,West,270,12.7,12.7,52,0.00,FEW,,0.00,WeatherDisplay:10.37,2017-06-26 20:10:00,
2017-06-26 16:15:00,70.7,53.2,29.94,SW,225,8.1,8.1,54,0.00,FEW,,0.00,WeatherDisplay:10.37,2017-06-26 20:15:00,
2017-06-26 16:20:00,70.3,52.9,29.94,SW,225,10.4,10.4,54,0.00,FEW,,0.00,WeatherDisplay:10.37,2017-06-26 20:20:00,
2017-06-26 16:25:00,69.8,53.4,29.94,West,270,9.2,9.2,56,0.00,FEW,,0.00,WeatherDisplay:10.37,2017-06-26 20:25:00,
2017-06-26 16:30:00,69.8,54.4,29.94,South,180,9.2,9.2,58,0.00,FEW,,0.00,WeatherDisplay:10.37,2017-06-26 20:30:00,
2017-06-26 16:35:00,70.2,55.2,29.94,SW,225,10.4,10.4,59,0.00,FEW,,0.00,WeatherDisplay:10.37,2017-06-26 20:35:00,
2017-06-26 16:40:00,71.1,55.5,29.93,SW,225,15.0,15.0,58,0.00,FEW,,0.00,WeatherDisplay:10.37,2017-06-26 20:40:00,
2017-06-26 16:45:00,70.9,54.9,29.94,South,180,10.4,10.4,57,0.00,FEW,,0.00,WeatherDisplay:10.37,2017-06-26 20:45:00,
2017-06-26 16:50:00,70.3,54.9,29.93,SW,225,6.9,6.9,58,0.00,FEW,,0.00,WeatherDisplay:10.37,2017-06-26 20:50:00,
2017-06-26 16:55:00,70.5,55.5,29.93,NE,45,3.5,3.5,59,0.00,FEW,,0.00,WeatherDisplay:10.37,2017-06-26 20:55:00,
2017-06-26 17:00:00,70.2,53.7,29.93,SW,225,4.6,4.6,56,0.00,FEW,,0.00,WeatherDisplay:10.37,2017-06-26 21:00:00,
2017-06-26 17:05:00,70.0,54.0,29.93,NNW,338,5.8,5.8,57,0.00,FEW,,0.00,WeatherDisplay:10.37,2017-06-26 21:05:00,
2017-06-26 17:10:00,70.5,55.0,29.93,SW,225,8.1,8.1,58,0.00,FEW,,0.00,WeatherDisplay:10.37,2017-06-26 21:10:00,
2017-06-26 17:15:00,70.2,54.2,29.92,NW,315,6.9,6.9,57,0.00,FEW,,0.00,WeatherDisplay:10.37,2017-06-26 21:15:00,
2017-06-26 17:20:00,70.0,54.0,29.93,West,270,6.9,6.9,57,0.00,FEW,,0.00,WeatherDisplay:10.37,2017-06-26 21:20:00,
2017-06-26 17:25:00,69.8,53.9,29.92,SW,225,10.4,10.4,57,0.00,FEW,,0.00,WeatherDisplay:10.37,2017-06-26 21:25:00,
2017-06-26 17:30:00,69.3,54.8,29.92,SW,225,8.1,8.1,60,0.00,FEW,,0.00,WeatherDisplay:10.37,2017-06-26 21:30:00,
2017-06-26 17:35:00,69.6,55.6,29.92,South,180,10.4,10.4,61,0.00,FEW,,0.00,WeatherDisplay:10.37,2017-06-26 21:35:00,
2017-06-26 17:40:00,69.3,55.2,29.92,West,270,3.5,9.8,61,0.00,FEW,,0.00,WeatherDisplay:10.37,2017-06-26 21:40:00,
2017-06-26 17:45:00,68.9,54.9,29.93,South,180,9.2,9.2,61,0.00,FEW,,0.00,WeatherDisplay:10.37,2017-06-26 21:45:00,
2017-06-26 17:50:00,68.9,55.8,29.92,NW,315,3.5,3.5,63,0.00,FEW,,0.00,WeatherDisplay:10.37,2017-06-26 21:50:00,
2017-06-26 17:55:00,68.4,53.5,29.91,North,0,8.1,8.1,59,0.00,FEW,,0.00,WeatherDisplay:10.37,2017-06-26 21:55:00,
2017-06-26 18:00:00,67.6,54.2,29.92,South,180,10.4,10.4,62,0.00,FEW,,0.00,WeatherDisplay:10.37,2017-06-26 22:00:00,
2017-06-26 18:05:00,67.5,54.9,29.91,NW,315,5.8,5.8,64,0.00,FEW,,0.00,WeatherDisplay:10.37,2017-06-26 22:05:00,
2017-06-26 18:10:00,67.1,54.5,29.92,West,270,10.4,10.4,64,0.00,FEW,,0.00,WeatherDisplay:10.37,2017-06-26 22:10:00,
2017-06-26 18:15:00,66.7,54.2,29.91,North,0,8.1,8.1,64,0.00,FEW,,0.00,WeatherDisplay:10.37,2017-06-26 22:15:00,
2017-06-26 18:20:00,66.4,53.8,29.91,SW,225,8.1,8.1,64,0.00,FEW,,0.00,WeatherDisplay:10.37,2017-06-26 22:20:00,
2017-06-26 18:25:00,66.4,53.8,29.92,West,270,4.6,4.6,64,0.00,FEW,,0.00,WeatherDisplay:10.37,2017-06-26 22:25:00,
2017-06-26 18:30:00,66.4,53.8,29.92,North,0,6.9,6.9,64,0.00,FEW,,0.00,WeatherDisplay:10.37,2017-06-26 22:30:00,
2017-06-26 18:35:00,66.7,54.2,29.91,West,270,3.5,3.5,64,0.00,FEW,,0.00,WeatherDisplay:10.37,2017-06-26 22:35:00,
2017-06-26 18:40:00,67.3,54.7,29.91,NW,315,5.8,5.8,64,0.00,FEW,,0.00,WeatherDisplay:10.37,2017-06-26 22:40:00,
2017-06-26 18:45:00,67.8,54.3,29.92,NW,315,3.5,6.0,62,0.00,FEW,,0.00,WeatherDisplay:10.37,2017-06-26 22:45:00,
2017-06-26 18:50:00,67.8,54.8,29.91,SW,225,10.4,10.4,63,0.00,FEW,,0.00,WeatherDisplay:10.37,2017-06-26 22:50:00,
2017-06-26 18:55:00,67.6,54.6,29.91,NNW,338,10.4,10.4,63,0.00,FEW,,0.00,WeatherDisplay:10.37,2017-06-26 22:55:00,
2017-06-26 19:00:00,67.1,53.6,29.91,SW,225,2.3,2.3,62,0.00,FEW,,0.00,WeatherDisplay:10.37,2017-06-26 23:00:00,
2017-06-26 19:05:00,66.7,52.9,29.92,West,270,8.1,8.1,61,0.00,FEW,,0.00,WeatherDisplay:10.37,2017-06-26 23:05:00,
2017-06-26 19:10:00,66.7,53.3,29.91,SW,225,3.5,4.5,62,0.00,FEW,,0.00,WeatherDisplay:10.37,2017-06-26 23:10:00,
2017-06-26 19:15:00,66.9,53.5,29.91,West,270,5.8,5.8,62,0.00,FEW,,0.00,WeatherDisplay:10.37,2017-06-26 23:15:00,
2017-06-26 19:20:00,67.3,53.4,29.91,NW,315,9.2,9.2,61,0.00,FEW,,0.00,WeatherDisplay:10.37,2017-06-26 23:20:00,
2017-06-26 19:25:00,67.1,52.7,29.92,North,0,10.4,10.4,60,0.00,FEW,,0.00,WeatherDisplay:10.37,2017-06-26 23:25:00,
2017-06-26 19:30:00,66.4,52.5,29.91,West,270,10.4,10.4,61,0.00,FEW,,0.00,WeatherDisplay:10.37,2017-06-26 23:30:00,
2017-06-26 19:35:00,66.0,52.6,29.91,SE,135,9.2,9.2,62,0.00,FEW,,0.00,WeatherDisplay:10.37,2017-06-26 23:35:00,
2017-06-26 19:40:00,65.8,52.5,29.92,South,180,8.1,8.1,62,0.00,FEW,,0.00,WeatherDisplay:10.37,2017-06-26 23:40:00,
2017-06-26 19:45:00,65.8,52.9,29.91,North,0,5.8,5.8,63,0.00,FEW,,0.00,WeatherDisplay:10.37,2017-06-26 23:45:00,
2017-06-26 19:48:00,65.7,52.7,29.92,South,180,4.6,4.6,63,0.00,FEW,,0.00,WeatherDisplay:10.37,2017-06-26 23:48:00,
2017-06-26 19:53:00,65.7,52.7,29.92,SW,225,3.5,3.8,63,0.00,FEW,,0.00,WeatherDisplay:10.37,2017-06-26 23:53:00,
2017-06-26 19:58:00,65.7,52.7,29.92,SW,225,6.9,6.9,63,0.00,FEW,,0.00,WeatherDisplay:10.37,2017-06-26 23:58:00,
2017-06-26 20:03:00,65.7,52.7,29.92,SW,225,8.1,8.1,63,0.00,FEW,,0.00,WeatherDisplay:10.37,2017-06-27 00:03:00,
2017-06-26 20:08:00,65.7,52.7,29.93,NW,315,8.1,8.1,63,0.00,FEW,,0.00,WeatherDisplay:10.37,2017-06-27 00:08:00,
2017-06-26 20:13:00,65.1,51.3,29.94,North,0,19.6,19.6,61,0.00,FEW,,0.00,WeatherDisplay:10.37,2017-06-27 00:13:00,
2017-06-26 20:18:00,64.0,50.3,29.94,East,90,8.1,8.1,61,0.00,FEW,,0.00,WeatherDisplay:10.37,2017-06-27 00:18:00,
2017-06-26 20:23:00,63.0,49.3,29.94,North,0,10.4,10.4,61,0.00,FEW,,0.00,WeatherDisplay:10.37,2017-06-27 00:23:00,
2017-06-26 20:28:00,62.4,49.7,29.93,North,0,5.8,5.8,63,0.00,FEW,,0.00,WeatherDisplay:10.37,2017-06-27 00:28:00,
2017-06-26 20:33:00,62.1,48.9,29.94,NE,45,2.3,0.0,62,0.00,FEW,,0.00,WeatherDisplay:10.37,2017-06-27 00:33:00,
2017-06-26 20:38:00,61.7,49.0,29.93,North,0,2.3,0.0,63,0.00,FEW,,0.00,WeatherDisplay:10.37,2017-06-27 00:38:00,
2017-06-26 20:43:00,61.3,48.6,29.93,NE,45,3.5,3.5,63,0.00,FEW,,0.00,WeatherDisplay:10.37,2017-06-27 00:43:00,
2017-06-26 20:48:00,61.2,48.5,29.94,SE,135,1.2,0.0,63,0.00,FEW,,0.00,WeatherDisplay:10.37,2017-06-27 00:48:00,
2017-06-26 20:53:00,61.0,48.3,29.94,North,0,0.0,0.0,63,0.00,FEW,,0.00,WeatherDisplay:10.37,2017-06-27 00:53:00,
2017-06-26 20:58:00,60.6,48.8,29.93,North,0,1.2,0.0,65,0.00,FEW,,0.00,WeatherDisplay:10.37,2017-06-27 00:58:00,
2017-06-26 21:03:00,60.6,48.8,29.94,NE,45,0.0,0.0,65,0.00,FEW,,0.00,WeatherDisplay:10.37,2017-06-27 01:03:00,
2017-06-26 21:08:00,60.4,48.6,29.94,North,0,1.2,0.0,65,0.00,FEW,,0.00,WeatherDisplay:10.37,2017-06-27 01:08:00,
2017-06-26 21:09:00,60.3,48.4,29.93,North,0,1.2,0.0,65,0.00,FEW,,0.00,WeatherDisplay:10.37,2017-06-27 01:09:00,
2017-06-26 21:14:00,60.3,48.9,29.93,SW,225,3.5,0.0,66,0.00,FEW,,0.00,WeatherDisplay:10.37,2017-06-27 01:14:00,
2017-06-26 21:19:00,60.1,49.1,29.93,SE,135,1.2,0.0,67,0.00,FEW,,0.00,WeatherDisplay:10.37,2017-06-27 01:19:00,
2017-06-26 21:24:00,59.7,48.7,29.93,SE,135,0.0,0.0,67,0.00,FEW,,0.00,WeatherDisplay:10.37,2017-06-27 01:24:00,
2017-06-26 21:29:00,59.4,48.8,29.93,SE,135,0.0,0.0,68,0.00,FEW,,0.00,WeatherDisplay:10.37,2017-06-27 01:29:00,
2017-06-26 21:34:00,59.2,48.6,29.93,NE,45,1.2,0.0,68,0.00,FEW,,0.00,WeatherDisplay:10.37,2017-06-27 01:34:00,
2017-06-26 21:39:00,58.8,49.1,29.94,NE,45,0.0,0.0,70,0.00,FEW,,0.00,WeatherDisplay:10.37,2017-06-27 01:39:00,
2017-06-26 21:44:00,58.3,48.5,29.94,NE,45,0.0,0.0,70,0.00,FEW,,0.00,WeatherDisplay:10.37,2017-06-27 01:44:00,
2017-06-26 21:49:00,57.9,48.2,29.94,NE,45,0.0,0.0,70,0.00,FEW,,0.00,WeatherDisplay:10.37,2017-06-27 01:49:00,
2017-06-26 21:51:00,57.7,48.0,29.94,NE,45,0.0,0.0,70,0.00,FEW,,0.00,WeatherDisplay:10.37,2017-06-27 01:51:00,
2017-06-26 21:56:00,57.6,47.8,29.94,NE,45,0.0,0.0,70,0.00,FEW,,0.00,WeatherDisplay:10.37,2017-06-27 01:56:00,
2017-06-26 22:01:00,57.2,47.5,29.94,NE,45,0.0,0.0,70,0.00,FEW,,0.00,WeatherDisplay:10.37,2017-06-27 02:01:00,
2017-06-26 22:06:00,57.0,48.1,29.94,NE,45,0.0,0.0,72,0.00,FEW,,0.00,WeatherDisplay:10.37,2017-06-27 02:06:00,
2017-06-26 22:11:00,56.7,48.1,29.94,NE,45,0.0,0.0,73,0.00,FEW,,0.00,WeatherDisplay:10.37,2017-06-27 02:11:00,
2017-06-26 22:16:00,56.5,47.9,29.94,NE,45,0.0,0.0,73,0.00,FEW,,0.00,WeatherDisplay:10.37,2017-06-27 02:16:00,
2017-06-26 22:18:00,56.3,47.8,29.94,NE,45,0.0,0.0,73,0.00,FEW,,0.00,WeatherDisplay:10.37,2017-06-27 02:18:00,
2017-06-26 22:23:00,56.1,47.6,29.94,NE,45,0.0,0.0,73,0.00,FEW,,0.00,WeatherDisplay:10.37,2017-06-27 02:23:00,
2017-06-26 22:28:00,55.9,47.8,29.93,NE,45,0.0,0.0,74,0.00,FEW,,0.00,WeatherDisplay:10.37,2017-06-27 02:28:00,
2017-06-26 22:33:00,55.8,47.6,29.93,NE,45,0.0,0.0,74,0.00,FEW,,0.00,WeatherDisplay:10.37,2017-06-27 02:33:00,
2017-06-26 22:38:00,55.4,47.6,29.93,NE,45,0.0,0.0,75,0.00,FEW,,0.00,WeatherDisplay:10.37,2017-06-27 02:38:00,
2017-06-26 22:40:00,55.4,47.6,29.94,NE,45,0.0,0.0,75,0.00,FEW,,0.00,WeatherDisplay:10.37,2017-06-27 02:40:00,
2017-06-26 22:45:00,55.2,47.4,29.94,NE,45,0.0,0.0,75,0.00,FEW,,0.00,WeatherDisplay:10.37,2017-06-27 02:45:00,
2017-06-26 22:50:00,55.0,47.3,29.94,NE,45,0.0,0.0,75,0.00,FEW,,0.00,WeatherDisplay:10.37,2017-06-27 02:50:00,
2017-06-26 22:55:00,55.0,47.3,29.93,NE,45,0.0,0.0,75,0.00,FEW,,0.00,WeatherDisplay:10.37,2017-06-27 02:55:00,
2017-06-26 23:00:00,54.9,47.4,29.94,NE,45,0.0,0.0,76,0.00,FEW,,0.00,WeatherDisplay:10.37,2017-06-27 03:00:00,
2017-06-26 23:05:00,54.9,47.4,29.94,NE,45,0.0,0.0,76,0.00,FEW,,0.00,WeatherDisplay:10.37,2017-06-27 03:05:00,
2017-06-26 23:10:00,55.2,48.5,29.94,NE,45,0.0,0.0,78,0.00,FEW,,0.00,WeatherDisplay:10.37,2017-06-27 03:10:00,
2017-06-26 23:15:00,55.6,48.8,29.94,East,90,0.0,0.0,78,0.00,FEW,,0.00,WeatherDisplay:10.37,2017-06-27 03:15:00,